Weather History for VTSP - April, 2014

Change the Weather History Date:

Saturday, April 5, 2014

  Actual Average Record
Temperature  
Mean Temperature 78 °F -  
Max Temperature 84 °F 91 °F 100 °F (1997)
Min Temperature 73 °F 77 °F 71 °F (2003)
Cooling Degree Days 14    
Growing Degree Days 28 (Base 50)    
Moisture  
Dew Point 74 °F    
Average Humidity 85    
Maximum Humidity 95    
Minimum Humidity 74    
Precipitation  
Precipitation 0.35 in 0.25 in - ()
Sea Level Pressure  
Sea Level Pressure 29.90 in    
Wind  
Wind Speed 4 mph ()    
Max Wind Speed 15 mph    
Max Gust Speed -    
Visibility 4.6 miles    
Events Rain , Thunderstorm    
Averages and records for this station are not official NWS values.
T = Trace of Precipitation, MM = Missing Value Source: Averaged Metar Reports

Daily Weather History Graph

Daily Weather History Graph

Search for Another Location

Airport or City:

Trip Planner

Search our weather history database for the weather conditions in past years. The results will help you decide how hot, cold, wet, or windy it might be!

Date:

Astronomy

Apr. 05, 2014 Rise Set
Actual Time 6:22 AM ICT 6:36 PM ICT
Civil Twilight 6:01 AM ICT 6:57 PM ICT
Nautical Twilight 5:37 AM ICT 7:21 PM ICT
Astronomical Twilight 5:12 AM ICT 7:46 PM ICT
Moon 10:43 AM ICT (4/5) 11:30 PM ICT (4/5)
Length of Visible Light 12h 55m
Length of Day
12h 13m
Waxing Crescent, 30% of the Moon is Illuminated
Apr 5
Waxing Crescent
Apr 7
First Quarter
Apr 15
Full
Apr 22
Last Quarter
Apr 29
New

Hourly Weather History & Observations

Time (ICT) Temp. Heat Index Dew Point Humidity Pressure Visibility Wind Dir Wind Speed Gust Speed Precip Events Conditions
12:00 AM 78.8 °F - 75.2 °F 89% 29.89 in 5.0 mi SE 3.5 mph - N/A   Mostly Cloudy
12:30 AM 78.8 °F - 75.2 °F 89% 29.89 in 4.3 mi NW 4.6 mph - N/A   Mostly Cloudy
1:00 AM 81 °F - 78 °F 86% 29.83 in 5 mi WNW 3.5 mph - - Rain , Thunderstorm Thunderstorms and Rain
1:00 AM 78.8 °F - 75.2 °F 89% 29.89 in 4.3 mi West 6.9 mph - N/A Thunderstorm Thunderstorm
2:00 AM 78.8 °F - 73.4 °F 83% 29.86 in 5.0 mi WNW 9.2 mph - N/A   Mostly Cloudy
2:30 AM 78.8 °F - 73.4 °F 83% 29.86 in 5.0 mi WSW 3.5 mph - N/A   Mostly Cloudy
3:00 AM 78.8 °F - 73.4 °F 83% 29.86 in 5.0 mi NNW 4.6 mph - N/A   Mostly Cloudy
4:00 AM 79 °F - 76 °F 89% 29.80 in 5 mi Calm Calm - - Rain , Thunderstorm Thunderstorms and Rain
4:00 AM 77.0 °F - 73.4 °F 89% 29.83 in 4.3 mi Variable 1.2 mph - N/A Rain Light Rain
4:30 AM 77.0 °F - 73.4 °F 89% 29.83 in 3.7 mi Variable 2.3 mph - N/A Rain Light Rain
5:00 AM 77.0 °F - 73.4 °F 89% 29.86 in 4.3 mi Variable 2.3 mph - N/A Rain Light Rain
5:30 AM 77.0 °F - 75.2 °F 94% 29.86 in 4.3 mi Variable 2.3 mph - N/A Rain Light Rain
6:00 AM 77.0 °F - 73.4 °F 89% 29.86 in 3.7 mi Variable 1.2 mph - N/A Rain Light Rain
6:30 AM 77.0 °F - 73.4 °F 89% 29.89 in 3.7 mi Variable 1.2 mph - N/A Rain Light Rain
7:00 AM 78 °F - 77 °F 95% 29.85 in 4 mi Calm Calm - - Rain Light Rain
7:00 AM 77.0 °F - 73.4 °F 89% 29.89 in 4.3 mi Variable 2.3 mph - N/A Rain Light Rain
7:30 AM 75.2 °F - 73.4 °F 94% 29.92 in 4.3 mi Variable 1.2 mph - N/A Rain Light Rain
8:00 AM 77.0 °F - 73.4 °F 89% 29.92 in 4.3 mi Calm Calm - N/A Rain Light Rain
8:30 AM 77.0 °F - 73.4 °F 89% 29.92 in 4.3 mi Variable 2.3 mph - N/A Rain Light Rain
9:00 AM 77.0 °F - 73.4 °F 89% 29.95 in 4.3 mi Variable 2.3 mph - N/A Rain Light Rain
9:30 AM 77.0 °F - 75.2 °F 94% 29.95 in 4.3 mi Variable 2.3 mph - N/A Rain Light Rain
10:00 AM 79 °F - 78 °F 94% 29.91 in 3 mi Calm Calm - - Rain , Thunderstorm Thunderstorms and Rain
10:00 AM 78.8 °F - 75.2 °F 89% 29.95 in 1.9 mi Variable 1.2 mph - N/A Rain Rain
10:30 AM 77.0 °F - 71.6 °F 83% 29.95 in 4.3 mi WSW 6.9 mph - N/A Rain Light Rain
11:00 AM 77.0 °F - 71.6 °F 83% 29.98 in 4.3 mi WSW 4.6 mph - N/A Rain Light Rain
11:30 AM 77.0 °F - 73.4 °F 89% 29.95 in 4.3 mi SW 3.5 mph - N/A Rain Light Rain
12:00 PM 78.8 °F - 75.2 °F 89% 29.95 in 4.3 mi West 9.2 mph - N/A Rain Light Rain
12:30 PM 78.8 °F - 75.2 °F 89% 29.95 in 3.7 mi West 11.5 mph - N/A Rain Light Rain
1:00 PM 81 °F - 77 °F 83% 29.90 in 4 mi WNW 5.8 mph - - Rain Light Rain
1:00 PM 80.6 °F 86.2 °F 75.2 °F 84% 29.92 in 4.3 mi West 13.8 mph - N/A Rain Light Rain
1:30 PM 80.6 °F 86.2 °F 75.2 °F 84% 29.92 in 4.3 mi West 12.7 mph - N/A   Overcast
2:00 PM 80.6 °F 85.4 °F 73.4 °F 79% 29.92 in 4.3 mi West 12.7 mph - N/A   Overcast
2:30 PM 80.6 °F 85.4 °F 73.4 °F 79% 29.92 in 4.3 mi West 11.5 mph - N/A   Mostly Cloudy
3:00 PM 80.6 °F 86.2 °F 75.2 °F 84% 29.89 in 4.3 mi West 15.0 mph - N/A   Overcast
3:30 PM 82.4 °F 88.2 °F 73.4 °F 74% 29.89 in 4.3 mi West 12.7 mph - N/A   Mostly Cloudy
4:00 PM 83 °F - 76 °F 75% 29.83 in 6 mi WNW 5.8 mph - -   Overcast
4:00 PM 82.4 °F 89.5 °F 75.2 °F 79% 29.86 in 5.0 mi West 12.7 mph - N/A   Mostly Cloudy
4:30 PM 82.4 °F 88.2 °F 73.4 °F 74% 29.86 in 5.0 mi West 12.7 mph - N/A   Overcast
5:00 PM 80.6 °F 85.4 °F 73.4 °F 79% 29.86 in 5.0 mi WNW 9.2 mph - N/A   Overcast
5:30 PM 80.6 °F 85.4 °F 73.4 °F 79% 29.86 in 5.0 mi West 9.2 mph - N/A   Overcast
6:00 PM 80.6 °F 85.4 °F 73.4 °F 79% 29.89 in 5.0 mi WNW 5.8 mph - N/A   Overcast
6:30 PM 80.6 °F 85.4 °F 73.4 °F 79% 29.89 in 5.0 mi West 3.5 mph - N/A   Overcast
7:00 PM 82 °F - 76 °F 76% 29.83 in 6 mi Calm Calm - -   Overcast
7:00 PM 80.6 °F 85.4 °F 73.4 °F 79% 29.89 in 5.0 mi Variable 3.5 mph - N/A   Overcast
7:30 PM 78.8 °F - 73.4 °F 83% 29.92 in 5.0 mi Calm Calm - N/A   Overcast
8:00 PM 78.8 °F - 73.4 °F 83% 29.92 in 5.0 mi Variable 1.2 mph - N/A   Overcast
8:30 PM 78.8 °F - 75.2 °F 89% 29.92 in 5.0 mi Variable 2.3 mph - N/A   Mostly Cloudy
9:00 PM 78.8 °F - 73.4 °F 83% 29.92 in 5.0 mi WSW 4.6 mph - N/A   Mostly Cloudy
9:30 PM 78.8 °F - 75.2 °F 89% 29.95 in 5.0 mi Variable 2.3 mph - N/A   Mostly Cloudy
10:00 PM 80 °F - 76 °F 85% 29.89 in 6 mi Calm Calm - -   Overcast
10:00 PM 78.8 °F - 73.4 °F 83% 29.95 in 5.0 mi Variable 2.3 mph - N/A   Mostly Cloudy
10:30 PM 78.8 °F - 73.4 °F 83% 29.95 in 5.0 mi East 3.5 mph - N/A   Mostly Cloudy
11:00 PM 77.0 °F - 73.4 °F 89% 29.95 in 5.0 mi Calm Calm - N/A   Mostly Cloudy
11:30 PM 77.0 °F - 75.2 °F 94% 29.95 in 5.0 mi Calm Calm - N/A   Mostly Cloudy